Regional Weather Roundup
Issued by NWS

Home | Current Version | Previous Version | Text Only | Print | Product List | Glossary On
Versions: 1 2 3 4 5 6 7 8 9 10 11 12 13 14 15 16 17 18 19 20 21 22 23 24 25 26 27 28 29 30 31 32 33 34 35 36 37 38 39 40 41 42 43 44 45 46 47 48 49 50
000
ASUS45 KSLC 061110
RWRUT

UTAH REGIONAL WEATHER ROUNDUP
NATIONAL WEATHER SERVICE SALT LAKE CITY UT
500 AM MDT WED MAY 06 2015

UTZ001>011-023>025-061200-

NORTHERN UTAH

CITY           SKY/WX    TMP DP  RH WIND       PRES   REMARKS
HILL AFB       MOCLDY    52  49  89 S8        29.83S
LOGAN          CLEAR     46  43  89 E3        29.81R
OGDEN          MOCLDY    54  48  80 S7        29.81S
PROVO AIRPORT  CLOUDY    50  46  87 SE5       29.85S
SALT LAKE CITY CLOUDY    54  49  83 SE9       29.82S
VERNAL         LGT RAIN  50  49  96 CALM      29.80S
WENDOVER       MOCLDY    52  37  58 CALM      29.81S
HEBER CITY     CLOUDY    46  45  93 CALM      29.85S
WEST JORDAN    CLOUDY    52  48  87 SE5       29.84S

$$

UTZ012>022-026-027-061200-

SOUTHERN/CENTRAL UTAH

CITY           SKY/WX    TMP DP  RH WIND       PRES   REMARKS
BLANDING       CLOUDY    49  47  93 CALM      29.95S
BRYCE CANYON   CLOUDY    39  36  89 NW6       29.96S WCI  35
CEDAR CITY     LGT RAIN  47  43  86 SW5       29.91R
DELTA          CLOUDY    49  47  93 SE5       29.86S
HANKSVILLE     CLOUDY    54  50  87 CALM      29.83R
MILFORD        CLOUDY    50  46  86 SW9       29.86S
MOAB/CYNLANDS  CLOUDY    54  51  90 N5        29.78S
PRICE          MOCLDY    46  39  76 N6        29.83R
ST GEORGE      CLOUDY    57  48  72 CALM      29.87S
KANAB          CLOUDY    46  46 100 CALM      29.95S

$$

REGIONAL REPORTS     COLORADO/ARIZONA

CITY           SKY/WX    TMP DP  RH WIND       PRES   REMARKS
CRAIG, CO      CLOUDY    49  45  86 W7        29.80S
GRAND JUNCTION LGT RAIN  51  51 100 CALM      29.80R
RIFLE          LGT RAIN  48  46  93 CALM      29.82S FOG
MONTROSE       CLOUDY    50  48  93 SE3       29.85R
CORTEZ         CLOUDY    49  46  90 S12       29.90S
PAGE, AZ       PTCLDY    55  47  74 CALM      29.86F
GRAND CANYON   MOCLDY    41  39  93 SW5       29.99F
KINGMAN        PTCLDY    53  37  54 SE7       29.85S
FLAGSTAFF      PTCLDY    35  34  96 CALM      30.01F

$$

REGIONAL REPORTS    NEVADA/IDAHO/WYOMING

CITY           SKY/WX    TMP DP  RH WIND       PRES   REMARKS
LAS VEGAS, NV  PTCLDY    68  39  34 S7        29.72S
ELY            MOCLDY    45  38  76 SW12      29.89S
ELKO           PTCLDY    41  29  62 CALM      29.82S
POCATELLO, ID  CLEAR     48  22  35 SW18      29.83R
BURLEY         MOCLDY    46  25  43 W12G21    29.82R
EVANSTON, WY   CLOUDY    43  41  93 SW9       29.87S FOG
ROCK SPRINGS   CLOUDY    46  42  86 W12       29.81R
KEMMERER       CLOUDY    43  41  93 N6        29.85S

$$



USA.gov is the U.S. government's official web portal to all federal, state and local government web resources and services.